User: anonymous   Login
Location: Unspecified
(0.0000°N, 0.0000°E)
Time: 22:19:02
(UTC+00:00)
Language:

OPTUS 1C - Orbit

View from above orbital plane
View from above orbital plane
View from above satellite
View from above satellite

Ground track
Ground track

The orbit data is extracted from the following two-line orbital elements,

1 27831U 03028B   16274.60869662 -.00000169 +00000-0 +00000-0 0  9994
2 27831 000.0224 165.4192 0004149 023.9656 195.5466 01.00272380017498
Epoch (UTC): 30 September 2016 14:36:31
Eccentricity: 0.0004149
inclination: 0.0224°
perigee height: 35768 km
apogee height: 35803 km
right ascension of ascending node: 165.4192°
argument of perigee: 23.9656°
revolutions per day: 1.00272380
mean anomaly at epoch: 195.5466°
orbit number at epoch: 1749

The dashed part of the orbit path shows where the satellite is in the earth's shadow,  

DLR